Regional Weather Roundup
Issued by NWS Lake Charles, LA

Home | Current Version | Previous Version | Text Only | Print | Product List | Glossary On
Versions: 1 2 3 4 5 6 7 8 9 10 11 12 13 14 15 16 17 18 19 20 21 22 23 24 25 26 27
000
ASUS44 KLCH 260510
RWRLCH
REGIONAL WEATHER ROUNDUP
NATIONAL WEATHER SERVICE LAKE CHARLES LA
1200 AM CDT MON JUN 26 2017

Note: "fair" indicates few or no clouds below 12,000 feet with no
significant weather and/or obstructions to visibility.


ACROSS SOUTHEAST TEXAS

CITY           SKY/WX    TMP DP  RH WIND       PRES   REMARKS
BEAUMONT         N/A    N/A N/A N/A MISG      30.12F
BEAUMONT CITY  MOCLDY   N/A N/A N/A MISG      30.13F
ORANGE         CLOUDY    76  75  98 CALM      30.15S
JASPER           N/A     75  70  84 E3        30.17S
$$

ACROSS CENTRAL LOUISIANA

CITY           SKY/WX    TMP DP  RH WIND       PRES   REMARKS
LEESVILLE      MOCLDY    72  66  82 NE5       30.15S
FULLERTON      FAIR      72  66  81 VRB3      30.14R
ALEXANDRIA INT CLEAR     71  66  84 CALM      30.15R
ESLER FIELD    CLEAR     70  68  93 CALM      30.16S
DERIDDER       FAIR      73  70  89 NE5       30.17S
OAKDALE        PTCLDY    72  67  86 CALM      30.15S
OPELOUSAS      FAIR      72  68  86 CALM      30.15S
$$

ACROSS SOUTHWEST AND SOUTH CENTRAL LOUISIANA

CITY           SKY/WX    TMP DP  RH WIND       PRES   REMARKS
SULPHUR        CLOUDY    79  72  80 NE7       30.15S
LAKE CHARLES   CLOUDY    78  75  90 NE7       30.14S
CHENNAULT INT  CLOUDY    76  70  81 NE7       30.15S
CAMERON PHI    MOCLDY    77  75  94 NE5       30.12F
DEQUINCY       CLOUDY    75  67  77 CALM      30.16R
JENNINGS       FAIR     N/A N/A N/A NE3       30.14F
LAFAYETTE      CLEAR     76  69  79 NE5       30.14S
NEW IBERIA     PTCLDY    78  68  71 NE7       30.14S
ABBEVILLE      NOT AVBL
PATTERSON      MOCLDY    77  76  96 N6        30.14R
SALT POINT       N/A     77  75  93 CALM      30.11R
$$

SELECTED SITES ACROSS THE REGION

CITY           SKY/WX    TMP DP  RH WIND       PRES   REMARKS
HOUSTON BUSH   MOCLDY    75  71  87 E15       30.13R
HOUSTON HOBBY  MOCLDY    79  71  76 E5        30.12R
GALVESTON      MOCLDY    78  76  93 NE9       30.12R
COLLEGE STAT   CLOUDY    73  73 100 N3        30.13R
CONROE         CLOUDY    75  72  90 E5        30.13S
HUNTSVILLE     CLOUDY    77  73  87 E3        30.14S
LUFKIN         CLEAR     72  68  87 NE5       30.16R
SHREVEPORT     CLEAR     69  66  90 CALM      30.18S
MONROE         CLEAR     66  64  93 CALM      30.19R
NATCHEZ MS     CLOUDY    71  63  75 NE5       30.17F
BATON ROUGE    CLOUDY    74  65  73 NE7       30.15R
N.O. INTL ARPT MOCLDY    79  71  76 NE9       30.13R
SLIDELL        CLEAR     75  68  78 N6        30.13R
$$

MARINE REPORTS

STATION/POSITION TIME  SKY/WX   TEMP    WIND        PRES    VSBY
                                AIR SEA DIR/SP/G
                 (UTC)          (F)     (DEG/KT/KT) (MB)    (MI)
BUOY 30 S HIGH I 0350            81 85   60/ 17/ 19 1019.3
WVE H/P(F/S)=  2/ 3

SEA RIM ST PARK  0500            76      60/  4/  4 1020.6F
PORT ARTHUR      0448            76 84  190/  2/  3 1020.5F
SABINE PASS N    0448            78 86  130/  3/  4 1021.7F
TEXAS POINT      NOT AVBL
CALCASIEU PASS   0448            78 85   70/  4/  5   N/A
LK CHARLES BEACH 0448            78 82              1021.3R
MARSH ISLAND     0400            82                   N/A
FRESH WATER LOCK 0448            80 87   90/  3/  4 1020.1R
AMERADA PASS     0448            78 82   CALM  /  1 1019.9R
$$




USA.gov is the U.S. government's official web portal to all federal, state and local government web resources and services.